Location: Devargunta
(16.7631°N, 80.9077°E)
Time: 19:10:08
(UTC+00:00)

SAR-Lupe-1 - Pass Details

Date: 19 January 2021
Orbit: 482 x 484 km, 98.2° (Epoch: 02 March)

Event Time Altitude Azimuth Distance (km) Brightness Sun altitude
Rises 12:53:31 0° 10° (N) 2,536 7.4 -7.1°
Reaches altitude 10° 12:55:34 10° 10° (N) 1,656 6.5 -7.6°
Maximum altitude 12:59:07 83° 284° (WNW) 489 4.1 -8.4°
Drops below altitude 10° 13:02:41 10° 195° (SSW) 1,653 7.2 -9.2°
Sets 13:04:44 0° 194° (SSW) 2,531 8.2 -9.7°
